Flag for Russia Weather past 2 weeks in Murmansk, Russia

Now
16 °F

Clear.


Feels Like: 3 °F
Forecast: 14 / 28 °F
Wind: 10 mph from South

Location: Murmansk Airport

Current Time: Oct 23, 2014 at 9:54:36 PM

Latest Report: Oct 23, 2014 at 9:00 PM


Visibility: 10 mi

Pressure: 30.48 "Hg

Humidity: 79%

Dew point: 10 °F

Location of MurmanskLocation

Historic Weather in Murmansk — Graph

°F

Murmansk temperature yesterday

Maximum temperature yesterday: 14 °F (at 3:30 PM)
Minimum temperature yesterday: -6 °F (at 7:30 AM)
Average temperature yesterday: 2 °F

Past Weeks' High & Low Weather Summary

 TemperatureHumidityPressure
High39 °F (Oct 9, 2:30 PM)100% (Oct 10, 6:30 AM)30.51 "Hg (Oct 10, 6:30 AM)
Low-6 °F (Oct 22, 7:30 AM)59% (Oct 16, 2:00 PM)29.74 "Hg (Oct 20, 6:00 AM)
Average25 °F84%30.05 "Hg
* Reported Oct 8 8:00 PM — Oct 23 8:30 PM, Murmansk, Weather by CustomWeather, © 2014

Note: Actual official high and low records may vary slightly from our data, if they occured in-between our weather recording intervals... More about our weather records

Advertising

Murmansk weather history for previous 24 hours

 ConditionsComfort  
Time TempWeatherWind HumidityBarometerVisibility
8:30 PM
Oct 23
16 °FClear.10 mph86%30.48 "Hg10 mi
8:00 PM16 °FClear.8 mph86%30.48 "Hg10 mi
7:30 PM16 °FClear.10 mph86%30.48 "Hg10 mi
7:00 PM18 °FClear.8 mph79%30.48 "Hg10 mi
6:30 PM18 °FSunny.8 mph79%30.48 "Hg10 mi
6:00 PM19 °FSunny.8 mph79%30.48 "Hg10 mi
5:30 PM19 °FSunny.8 mph73%30.48 "Hg10 mi
5:00 PM21 °FSunny.6 mph74%30.51 "Hg10 mi
4:30 PM23 °FSunny.8 mph68%30.51 "Hg10 mi
4:00 PM23 °FSunny.8 mph68%30.51 "Hg10 mi
3:30 PM23 °FSunny.6 mph68%30.51 "Hg10 mi
3:00 PM23 °FSunny.6 mph68%30.51 "Hg10 mi
2:30 PM23 °FSunny.6 mph68%30.51 "Hg10 mi
2:00 PM23 °FLight fog.6 mph68%30.51 "HgN/A
1:30 PM21 °FLight fog.8 mph74%30.51 "HgN/A
1:00 PM21 °FLight fog.8 mph74%30.51 "HgN/A
12:30 PM19 °FPassing clouds.6 mph79%30.51 "HgN/A
12:00 PM19 °FScattered clouds.6 mph86%30.51 "HgN/A
11:30 AM18 °FScattered clouds.3 mph86%30.51 "HgN/A
11:00 AM12 °FScattered clouds.6 mph92%30.51 "HgN/A
10:30 AM3 °FIce fog.3 mph85%30.51 "Hg3 mi
10:00 AM5 °FIce fog.3 mph85%30.51 "Hg3 mi
9:30 AM14 °FLight fog.6 mph85%30.51 "HgN/A
9:00 AM14 °FLight fog.6 mph85%30.51 "HgN/A
8:30 AM-2 °FIce fog.No wind77%30.51 "Hg1 mi
8:00 AM0 °FIce fog.No wind78%30.51 "Hg0 mi
7:30 AM0 °FIce fog.No wind84%30.51 "Hg0 mi
7:00 AM0 °FIce fog.No wind84%30.51 "Hg1 mi
6:30 AM1 °FIce fog.No wind85%30.51 "Hg2 mi
6:00 AM5 °FIce fog.No wind85%30.51 "Hg0 mi
5:30 AM0 °FLight fog.No wind78%30.51 "Hg6 mi
5:00 AM-2 °FLight fog.No wind84%30.51 "Hg6 mi
4:30 AM0 °FLight fog.No wind78%30.51 "Hg6 mi
4:00 AM-2 °FLight fog.No wind84%30.51 "Hg6 mi
3:30 AM-2 °FClear.No wind84%30.51 "Hg10 mi
3:00 AM0 °FPassing clouds.No wind84%30.51 "HgN/A
2:30 AM1 °FPassing clouds.No wind78%30.51 "HgN/A
2:00 AM1 °FPassing clouds.No wind85%30.51 "Hg6 mi
1:30 AM3 °FPassing clouds.No wind78%30.51 "HgN/A
1:00 AM1 °FClear.No wind85%30.51 "Hg10 mi
12:30 AM3 °FClear.No wind78%30.51 "Hg10 mi
12:00 AM3 °FClear.No wind85%30.51 "Hg10 mi
11:30 PM
Oct 22
3 °FClear.1 mph85%30.48 "Hg10 mi
11:00 PM5 °FClear.1 mph78%30.48 "Hg10 mi
10:30 PM7 °FClear.3 mph85%30.48 "Hg10 mi
10:00 PM7 °FClear.1 mph85%30.48 "Hg10 mi
9:30 PM3 °FClear.1 mph85%30.48 "Hg10 mi
9:00 PM5 °FClear.1 mph78%30.48 "Hg10 mi
Weather by CustomWeather, © 2014

See weather overviewHow to use our weather pages